Preview of NWS' New Version of Forecast
This preview is not operational and should not be used for support decisions.

Regional Weather Roundup (RWR)

Issued by National Weather Service (NWS)

                            
000
ASUS44 KJAN 230010
RWRMS 

MISSISSIPPI HOURLY WEATHER ROUNDUP
NATIONAL WEATHER SERVICE JACKSON MS
700 PM CDT SAT JUN 22 2019

NOTE: "FAIR: INDICATES FEW OR NO CLOUDS BELOW 12,000 FEET WITH NO
SIGNIFICANT WEATHER AND/OR OBSTRUCTIONS TO VISIBILITY.

MSZ001>002-007>008-010>013-018>021-025>028-034>036-230100-
NORTHWEST MISSISSIPPI
  
CITY           SKY/WX    TMP DP  RH WIND       PRES   REMARKS
BATESVILLE     FAIR      81  68  65 VRB3      29.99F                  
CLARKSDALE     SUNNY     93  75  55 S12       29.97F HX 104           
CLEVELAND      FAIR      87  76  71 S10       29.98S HX  97           
GREENWOOD      FAIR      89  74  60 SW6       29.99F HX  98           
6HR MIN TEMP:  88; 6HR MAX TEMP:  93;                                

GREENVILLE     FAIR      89  76  65 S10       29.97F HX 100           
6HR MIN TEMP:  89; 6HR MAX TEMP:  93;                                

OLIVE BRANCH   LGT RAIN  73  70  88 N6        30.01S                  
OXFORD         FAIR      73  68  83 CALM      30.01F                  
TUNICA           N/A     82  72  69 SE8       29.97F                  
WINONA         FAIR      88  73  60 SW3       30.02S HX  95           
$$

MSZ003>006-009-014>017-022>024-029>033-037>039-230100-
NORTHEAST MISSISSIPPI
  
CITY           SKY/WX    TMP DP  RH WIND       PRES   REMARKS
ABERDEEN       MOCLDY    73  73 100 N7G14     30.07R                  
COLUMBUS AFB   FAIR      77  68  72 CALM      30.02F                  
6HR MIN TEMP:  76; 6HR MAX TEMP:  93;                                

CORINTH        FAIR      75  70  83 E15G25    30.03F                  
GOLDN TRIANGLE FAIR      80  70  71 E8        30.02F                  
STARKVILLE     FAIR      86  77  74 CALM      30.02F HX  97           
TUPELO         FAIR      75  67  76 SE8       30.02F                  
6HR MIN TEMP:  71; 6HR MAX TEMP:  94; 6HR PCP:  1.08;                

$$

MSZ040-058-230100-
CENTRAL MISSISSIPPI
  
CITY           SKY/WX    TMP DP  RH WIND       PRES   REMARKS
JACKSON INTL   FAIR      90  71  53 S8        30.01F HX  96           
6HR MIN TEMP:  89; 6HR MAX TEMP:  93;                                

JACKSON HAWKNS FAIR      91  72  53 SW7       30.02S HX  98           
6HR MIN TEMP:  90; 6HR MAX TEMP:  94;                                

MADISON        FAIR      88  72  58 S6        30.01F HX  94           
MERIDIAN KEY   FAIR      91  75  59 S7        30.02F HX 101           
6HR MIN TEMP:  90; 6HR MAX TEMP:  95;                                

MERIDIAN NAS   FAIR      90  74  59 CALM      30.03S HX  99           
6HR MIN TEMP:  90; 6HR MAX TEMP:  95;                                

RAYMOND          N/A     90  77  66 S5        30.00F HX 102           
VICKSBURG VKS  CLEAR     91  77  62 S5        29.99F HX 105           
$$

MSZ059>079-230100-
SOUTH MISSISSIPPI
  
CITY           SKY/WX    TMP DP  RH WIND       PRES   REMARKS
BROOKHAVEN     FAIR      90  73  58 E8        30.04S HX  98           
HATTIESBURG    FAIR      90  73  57 S7        30.03F HX  98           
6HR MIN TEMP:  89; 6HR MAX TEMP:  93;                                

LAUREL         CLEAR     91  73  55 SW7       30.03S HX  99           
MCCOMB         FAIR      90  75  61 S10       30.03R HX 100           
6HR MIN TEMP:  90; 6HR MAX TEMP:  94;                                

NATCHEZ        FAIR      90  75  61 S8        30.01S HX 100           
6HR MIN TEMP:  89; 6HR MAX TEMP:  93;                                

PINE BELT      FAIR      89  76  65 S5        30.04S HX 100           
6HR MIN TEMP:  89; 6HR MAX TEMP:  92;                                

$$

MSZ080>082-230100-
COASTAL MISSISSIPPI
  
CITY           SKY/WX    TMP DP  RH WIND       PRES   REMARKS
BAY ST LOUIS   MOSUNNY   88  77  70 S9        30.03S HX 100           
BILOXI         PTSUNNY   87  78  75 S12       30.05S HX 100           
6HR MIN TEMP:  87; 6HR MAX TEMP:  91;                                

PASCAGOULA     PTSUNNY   87  77  72 S6        30.06S HX  99           
6HR MIN TEMP:  87; 6HR MAX TEMP:  92;                                

GULFPORT       FAIR      86  78  77 S9        30.04F HX  98           
6HR MIN TEMP:  86; 6HR MAX TEMP:  91;                                

$$

LAZ007>009-015>016-023>026-230100-
NORTHEAST LOUISIANA
  
CITY           SKY/WX    TMP DP  RH WIND       PRES   REMARKS
BASTROP        FAIR      88  73  60 S3        29.98S HX  96           
TALLULAH/VBURG FAIR      89  76  65 S5        29.99F HX 100           
6HR MIN TEMP:  88; 6HR MAX TEMP:  91;                                

VIDALIA        MOCLDY    90  76  64 SE7       29.98S HX 101           
$$